| time (UTC) | temp F | wind direction | speed MPH | gust MPH | rain 1hr in | rain 24hr in | rain mn in | humidity % | barometer mb |
| 20260503174557 | 59 | 229 | 11.0 | 26.0 | 0.00 | 0.00 | 0.00 | 43 | 1011.9 |
| 20260503173053 | 59 | 261 | 5.0 | 26.0 | 0.00 | 0.00 | 0.00 | 45 | 1012.1 |
| 20260503171548 | 59 | 187 | 6.0 | 16.0 | 0.00 | 0.00 | 0.00 | 47 | 1012.2 |
| 20260503120106 | 44 | 279 | 4.0 | 11.0 | 0.00 | 0.00 | 0.00 | 61 | 1013.8 |
| 20260503100104 | 38 | 209 | 3.0 | 9.0 | 0.00 | 0.00 | 0.00 | 63 | 1013.8 |
| 20260503081550 | 37 | 188 | 2.0 | 6.0 | 0.00 | 0.00 | 0.00 | 63 | 1014.6 |
| 20260503071554 | 38 | 183 | 2.0 | 6.0 | 0.00 | 0.00 | 0.00 | 59 | 1014.7 |
| 20260503060111 | 40 | 0 | 2.0 | 7.0 | 0.00 | 0.00 | 0.00 | 54 | 1015.4 |
| 20260503054547 | 40 | 220 | 1.0 | 7.0 | 0.00 | 0.00 | 0.00 | 54 | 1015.6 |
| 20260503053046 | 40 | 232 | 2.0 | 7.0 | 0.00 | 0.00 | 0.00 | 54 | 1015.7 |
| 20260503051548 | 40 | 240 | 3.0 | 10.0 | 0.00 | 0.00 | 0.00 | 55 | 1015.7 |
| 20260503050049 | 40 | 229 | 3.0 | 8.0 | 0.00 | 0.00 | 0.00 | 56 | 1015.8 |
| 20260503044618 | 40 | 192 | 2.0 | 8.0 | 0.00 | 0.00 | 0.00 | 57 | 1015.8 |
| 20260503043046 | 40 | 257 | 3.0 | 8.0 | 0.00 | 0.00 | 0.00 | 57 | 1015.8 |
| 20260503041553 | 40 | 253 | 2.0 | 7.0 | 0.00 | 0.00 | 0.00 | 57 | 1015.9 |
| 20260503040058 | 41 | 222 | 3.0 | 10.0 | 0.00 | 0.00 | 0.00 | 56 | 1016.0 |
| 20260503034556 | 41 | 244 | 3.0 | 8.0 | 0.00 | 0.00 | 0.00 | 57 | 1016.1 |
| 20260503033049 | 41 | 243 | 3.0 | 8.0 | 0.00 | 0.00 | 0.00 | 57 | 1016.0 |
| 20260503031549 | 41 | 251 | 2.0 | 8.0 | 0.00 | 0.00 | 0.00 | 58 | 1016.2 |
| 20260503030045 | 41 | 211 | 2.0 | 8.0 | 0.00 | 0.00 | 0.00 | 59 | 1016.2 |
| 20260503024557 | 41 | 229 | 2.0 | 5.0 | 0.00 | 0.00 | 0.00 | 58 | 1016.3 |
| 20260503023050 | 42 | 219 | 2.0 | 9.0 | 0.00 | 0.00 | 0.00 | 57 | 1016.3 |
| 20260503021550 | 41 | 245 | 1.0 | 7.0 | 0.00 | 0.00 | 0.00 | 57 | 1016.3 |
| 20260503020049 | 42 | 219 | 1.0 | 7.0 | 0.00 | 0.00 | 0.00 | 57 | 1016.1 |
| 20260503014554 | 42 | 228 | 2.0 | 5.0 | 0.00 | 0.00 | 0.00 | 57 | 1016.2 |
| 20260503013045 | 42 | 234 | 1.0 | 3.0 | 0.00 | 0.00 | 0.00 | 57 | 1016.0 |
| 20260503011552 | 43 | 234 | 1.0 | 3.0 | 0.00 | 0.00 | 0.00 | 54 | 1016.0 |
| 20260503010052 | 44 | 0 | 1.0 | 4.0 | 0.00 | 0.00 | 0.00 | 52 | 1016.0 |
| 20260503004553 | 45 | 233 | 0.0 | 4.0 | 0.00 | 0.00 | 0.00 | 51 | 1015.9 |
| 20260503003053 | 46 | 263 | 1.0 | 4.0 | 0.00 | 0.00 | 0.00 | 50 | 1015.9 |
| 20260503001551 | 46 | 263 | 1.0 | 8.0 | 0.00 | 0.00 | 0.00 | 50 | 1015.8 |
| 20260503000050 | 47 | 278 | 2.0 | 11.0 | 0.00 | 0.00 | 0.00 | 49 | 1015.8 |
| 20260502234601 | 48 | 267 | 4.0 | 10.0 | 0.00 | 0.00 | 0.00 | 49 | 1015.7 |
| 20260502233050 | 47 | 296 | 2.0 | 8.0 | 0.00 | 0.00 | 0.00 | 51 | 1015.9 |
| 20260502231549 | 46 | 265 | 3.0 | 9.0 | 0.00 | 0.00 | 0.00 | 51 | 1015.9 |
| 20260502230047 | 46 | 315 | 4.0 | 9.0 | 0.00 | 0.00 | 0.00 | 51 | 1016.1 |
| 20260502224545 | 46 | 302 | 4.0 | 9.0 | 0.00 | 0.00 | 0.00 | 51 | 1016.0 |
| 20260502223056 | 46 | 298 | 3.0 | 11.0 | 0.00 | 0.00 | 0.00 | 50 | 1016.0 |
| 20260502221548 | 46 | 289 | 4.0 | 12.0 | 0.00 | 0.00 | 0.00 | 50 | 1016.1 |
| 20260502220059 | 46 | 298 | 5.0 | 12.0 | 0.00 | 0.00 | 0.00 | 50 | 1015.9 |
| 20260502214605 | 46 | 311 | 3.0 | 9.0 | 0.00 | 0.00 | 0.00 | 50 | 1016.1 |
| 20260502213104 | 46 | 309 | 6.0 | 14.0 | 0.00 | 0.00 | 0.00 | 48 | 1016.1 |
| 20260502211557 | 46 | 300 | 5.0 | 12.0 | 0.00 | 0.00 | 0.00 | 50 | 1016.1 |
| 20260502210048 | 47 | 305 | 8.0 | 15.0 | 0.00 | 0.00 | 0.00 | 47 | 1016.2 |
| 20260502204543 | 47 | 303 | 6.0 | 12.0 | 0.00 | 0.00 | 0.00 | 52 | 1016.2 |
| 20260502203109 | 46 | 314 | 5.0 | 13.0 | 0.00 | 0.00 | 0.00 | 50 | 1016.3 |
| 20260502201547 | 46 | 296 | 7.0 | 14.0 | 0.00 | 0.00 | 0.00 | 49 | 1016.5 |
| 20260502200054 | 46 | 253 | 5.0 | 14.0 | 0.00 | 0.00 | 0.00 | 49 | 1016.6 |
| 20260502194544 | 46 | 318 | 6.0 | 20.0 | 0.00 | 0.00 | 0.00 | 47 | 1016.8 |
| 20260502193047 | 46 | 313 | 6.0 | 14.0 | 0.00 | 0.00 | 0.00 | 49 | 1016.8 |
| 20260502191547 | 47 | 290 | 5.0 | 15.0 | 0.00 | 0.00 | 0.00 | 47 | 1017.0 |
| 20260502190049 | 46 | 312 | 11.0 | 18.0 | 0.00 | 0.00 | 0.00 | 47 | 1017.1 |
| 20260502184547 | 47 | 311 | 8.0 | 14.0 | 0.00 | 0.00 | 0.00 | 49 | 1017.1 |
| 20260502183047 | 45 | 312 | 3.0 | 16.0 | 0.00 | 0.00 | 0.00 | 46 | 1017.1 |
| 20260502181549 | 45 | 308 | 9.0 | 17.0 | 0.00 | 0.00 | 0.00 | 46 | 1017.4 |